Overview Statistics Trail Chart Weather Telemetry Raw packets
 

This is the latest recevied weather packets stored in our database for station/object OK2JV-13. If no packets are shown the sender has not sent any weather packets the latest 10 day(s).

<< 17 18 19 20 21 22 23 >>
Time Temp. Humidity Pressure Rain* Wind** Luminosity Snow
1788210877 17.22° C 62% 1015.5 hPa - - - -
1788210273 17.22° C 63% 1015.5 hPa - - - -
1788209669 17.22° C 63% 1015.3 hPa - - - -
1788209067 16.67° C 63% 1015.3 hPa - - - -
1788208462 16.67° C 63% 1014.9 hPa - - - -
1788207857 16.67° C 63% 1014.7 hPa - - - -
1788207253 16.67° C 63% 1014.6 hPa - - - -
1788206663 17.22° C 62% 1014.7 hPa - - - -
1788206045 17.22° C 62% 1014.6 hPa - - - -
1788205441 17.22° C 62% 1014.7 hPa - - - -
1788204836 17.22° C 62% 1014.6 hPa - - - -
1788204232 17.22° C 62% 1014.4 hPa - - - -
1788203628 17.22° C 61% 1014.4 hPa - - - -
1788203023 17.78° C 57% 1014.4 hPa - - - -
1788202420 17.78° C 56% 1014.5 hPa - - - -
1788201816 17.78° C 55% 1014.5 hPa - - - -
1788200608 18.33° C 54% 1014.2 hPa - - - -
1788200004 18.89° C 53% 1014.1 hPa - - - -
1788199402 19.44° C 52% 1013.9 hPa - - - -
1788198796 19.44° C 52% 1014.2 hPa - - - -
1788198192 20° C 51% 1013.9 hPa - - - -
1788197587 20.56° C 51% 1014 hPa - - - -
1788196982 20.56° C 50% 1014.2 hPa - - - -
1788196378 21.11° C 50% 1014 hPa - - - -
1788195774 21.11° C 50% 1014 hPa - - - -

* Rain since midnight (hover to see other rain measurements)
** Current wind speed in m/s (hover to see current wind gust speed)